Flag for Finland Weather past 2 weeks in Kokkola, Finland

Now
61 °F

Fog.


Feels Like: 61 °F
Forecast: 64 / 75 °F
Wind: No wind

Location: Kruunupyy

Current Time: Jul 25, 2014 at 3:02:36 AM

Latest Report: Jul 25, 2014 at 2:20 AM


Visibility: 0 mi

Pressure: 30.15 "Hg

Humidity: 100%

Dew point: 61 °F

Location of KokkolaLocation

Historic Weather in Kokkola — Graph

°F

Kokkola temperature yesterday

Maximum temperature yesterday: 82 °F (at 3:20 PM)
Minimum temperature yesterday: 55 °F (at 3:50 AM)
Average temperature yesterday: 71 °F

Past Weeks' High & Low Weather Summary

 TemperatureHumidityPressure
High86 °F (Jul 23, 4:50 PM)100% (Jul 10, 3:50 AM)30.27 "Hg (Jul 10, 3:50 AM)
Low46 °F (Jul 11, 4:50 AM)24% (Jul 12, 2:20 PM)29.80 "Hg (Jul 15, 2:50 PM)
Average68 °F74%30.08 "Hg
* Reported Jul 10 1:20 AM — Jul 25 1:50 AM, Kokkola, Weather by CustomWeather, © 2014

Note: Actual official high and low records may vary slightly from our data, if they occured in-between our weather recording intervals... More about our weather records

Advertising

Kokkola weather history for previous 24 hours

 ConditionsComfort  
Time TempWeatherWind HumidityBarometerVisibility
1:50 AM
Jul 25
61 °FClear.No wind100%30.15 "Hg5 mi
1:20 AM61 °FClear.No wind100%30.15 "Hg10 mi
12:50 AM63 °FClear.No wind94%30.15 "Hg10 mi
12:20 AM63 °FClear.No wind94%30.15 "Hg10 mi
11:50 PM
Jul 24
64 °FClear.No wind88%30.15 "Hg10 mi
11:20 PM66 °FSunny.3 mph83%30.15 "Hg10 mi
10:50 PM68 °FSunny.5 mph78%30.15 "Hg10 mi
10:20 PM70 °FSunny.3 mph73%30.15 "Hg10 mi
9:50 PM73 °FSunny.3 mph61%30.15 "Hg10 mi
9:20 PM75 °FPassing clouds.5 mph54%30.15 "HgN/A
8:50 PM77 °FSunny.6 mph51%30.15 "Hg10 mi
8:20 PM77 °FSunny.7 mph51%30.15 "Hg10 mi
7:50 PM77 °FSunny.9 mph51%30.15 "Hg10 mi
7:20 PM79 °FSunny.12 mph48%30.15 "Hg10 mi
6:50 PM79 °FSunny.10 mph48%30.15 "Hg10 mi
6:20 PM79 °FPassing clouds.10 mph48%30.15 "HgN/A
5:50 PM81 °FPassing clouds.10 mph45%30.15 "HgN/A
5:20 PM81 °FPassing clouds.13 mph45%30.15 "HgN/A
4:50 PM81 °FPassing clouds.10 mph51%30.18 "HgN/A
4:20 PM81 °FPassing clouds.13 mph48%30.18 "HgN/A
3:50 PM81 °FPassing clouds.15 mph45%30.18 "HgN/A
3:20 PM82 °FPassing clouds.14 mph40%30.18 "HgN/A
2:50 PM81 °FPassing clouds.12 mph42%30.18 "HgN/A
2:20 PM81 °FPassing clouds.9 mph54%30.18 "HgN/A
1:50 PM81 °FPassing clouds.7 mph54%30.18 "HgN/A
1:20 PM81 °FPassing clouds.7 mph54%30.18 "HgN/A
12:50 PM81 °FPassing clouds.7 mph54%30.18 "HgN/A
12:20 PM79 °FPassing clouds.7 mph61%30.18 "HgN/A
11:50 AM79 °FPassing clouds.7 mph54%30.18 "HgN/A
11:20 AM79 °FPassing clouds.7 mph58%30.18 "HgN/A
10:50 AM77 °FPassing clouds.8 mph65%30.18 "HgN/A
10:20 AM75 °FPassing clouds.6 mph74%30.18 "HgN/A
9:50 AM73 °FPassing clouds.3 mph83%30.18 "HgN/A
9:20 AM70 °FPartly sunny.1 mph94%30.18 "Hg3 mi
8:50 AM68 °FFog.2 mph100%30.18 "Hg2 mi
8:20 AM66 °FFog.6 mph100%30.18 "Hg1 mi
7:50 AM66 °FFog.5 mph100%30.15 "Hg1 mi
7:31 AM70 °FPartly sunny.3 mph83%30.15 "HgN/A
7:20 AM70 °FPassing clouds.No wind88%30.15 "HgN/A
6:50 AM64 °FPartly sunny.No wind88%30.15 "HgN/A
6:20 AM61 °FPartly sunny.No wind88%30.15 "HgN/A
5:50 AM59 °FSunny.No wind94%30.15 "Hg10 mi
5:20 AM55 °FSunny.3 mph100%30.15 "Hg10 mi
4:50 AM55 °FClear.No wind100%30.18 "Hg10 mi
4:20 AM55 °FClear.No wind94%30.15 "Hg10 mi
3:50 AM55 °FClear.No wind100%30.15 "Hg10 mi
3:20 AM57 °FClear.No wind94%30.18 "Hg10 mi
Weather by CustomWeather, © 2014

See weather overviewHow to use our weather pages